Mt. Pocono, PA

3:42 AM EST on December 06, 2019 (GMT -0500)
Pocono Mountains Municipal

Weather History for KMPO - September, 2019

Change the Weather History Date:

Sunday, September 29, 2019

  Actual Average Record
Temperature  
Mean Temperature 64 °F 54 °F  
Max Temperature 72 °F 63 °F 79 °F (1945)
Min Temperature 55 °F 45 °F 25 °F (1942)
Degree Days  
Heating Degree Days 2 12  
Month to date heating degree days 125 193  
Since 1 July heating degree days 166 256  
Cooling Degree Days 0 0  
Month to date cooling degree days 25 13  
Year to date cooling degree days 343 309  
Growing Degree Days 14 (Base 50)    
Moisture  
Dew Point 54 °F    
Average Humidity 73    
Maximum Humidity 100    
Minimum Humidity 34    
Precipitation  
Precipitation 0.00 in 0.21 in 8.67 in (1946)
Month to date precipitation 1.24 5.18  
Year to date precipitation 36.17 36.16  
Sea Level Pressure  
Sea Level Pressure 30.26 in    
Wind  
Wind Speed 8 mph ()    
Max Wind Speed 18 mph    
Max Gust Speed 24 mph    
Visibility 10.0 miles    
Events      
T = Trace of Precipitation, MM = Missing Value Source: Averaged Metar Reports

Daily Weather History Graph

Daily Weather History Graph

Search for Another Location

Airport or City:

Astronomy

Sep. 29, 2019 Rise Set
Actual Time 6:55 AM EDT 6:47 PM EDT
Civil Twilight 6:28 AM EDT 7:14 PM EDT
Nautical Twilight 5:56 AM EDT 7:46 PM EDT
Astronomical Twilight 5:23 AM EDT 8:18 PM EDT
Moon 7:43 AM EDT (9/29) 7:45 PM EDT (9/29)
Length of Visible Light 12h 46m
Length of Day
11h 51m
New Moon, 1% of the Moon is Illuminated
Sep 29
New Moon
Oct 5
First Quarter
Oct 13
Full
Oct 21
Last Quarter
Oct 27
New

Hourly Weather History & Observations

Time (EDT) Temp. Dew Point Humidity Pressure Visibility Wind Dir Wind Speed Gust Speed Precip Events Conditions
12:53 AM 64.9 °F 64.9 °F 100% 30.15 in - NW 6.9 mph - N/A   Clear
1:53 AM 64.0 °F 63.0 °F 96% 30.16 in - NNW 5.8 mph - N/A   Clear
2:53 AM 63.0 °F 62.1 °F 97% 30.16 in - NW 11.5 mph - N/A   Clear
3:28 AM 63.0 °F 62.1 °F 97% 30.19 in - NW 9.2 mph - N/A   Mostly Cloudy
3:53 AM 63.0 °F 62.1 °F 97% 30.18 in - WNW 8.1 mph - N/A   Mostly Cloudy
4:39 AM 62.1 °F 61.0 °F 96% 30.21 in - NW 13.8 mph - N/A   Mostly Cloudy
4:53 AM 63.0 °F 62.1 °F 97% 30.20 in - NW 5.8 mph - N/A   Mostly Cloudy
5:10 AM 63.0 °F 62.1 °F 97% 30.22 in - NW 10.4 mph - N/A   Mostly Cloudy
5:40 AM 63.0 °F 62.1 °F 97% 30.23 in - NW 11.5 mph - N/A   Overcast
5:53 AM 62.1 °F 61.0 °F 96% 30.21 in - NW 9.2 mph - N/A   Overcast
6:08 AM 62.1 °F 61.0 °F 96% 30.23 in - NNW 10.4 mph - N/A   Overcast
6:53 AM 62.1 °F 60.1 °F 93% 30.23 in - NNW 11.5 mph 19.6 mph N/A   Overcast
7:14 AM 62.1 °F 59.0 °F 90% 30.25 in - NNW 11.5 mph - N/A   Overcast
7:50 AM 60.8 °F 57.2 °F 88% 30.27 in - NNW 16.1 mph 20.7 mph N/A   Overcast
7:53 AM 61.0 °F 55.9 °F 83% 30.26 in - NNW 12.7 mph 24.2 mph N/A   Overcast
8:10 AM 61.0 °F 55.9 °F 83% 30.28 in - NNW 15.0 mph 23.0 mph N/A   Scattered Clouds
8:36 AM 62.1 °F 55.0 °F 78% 30.28 in - North 12.7 mph - N/A   Mostly Cloudy
8:53 AM 61.0 °F 53.1 °F 75% 30.28 in - North 16.1 mph 23.0 mph N/A   Scattered Clouds
9:53 AM 63.0 °F 52.0 °F 67% 30.30 in - NW 13.8 mph - N/A   Clear
10:53 AM 66.0 °F 52.0 °F 60% 30.31 in - NNW 9.2 mph - N/A   Clear
11:53 AM 68.0 °F 50.0 °F 52% 30.30 in - NNW 9.2 mph - N/A   Clear
12:53 PM 70.0 °F 48.0 °F 46% 30.29 in - NNW 11.5 mph - N/A   Clear
1:53 PM 71.1 °F 41.0 °F 34% 30.28 in - NNE 11.5 mph - N/A   Clear
2:53 PM 71.1 °F 45.0 °F 39% 30.27 in 10.0 mi North 11.5 mph - N/A   Clear
3:53 PM 71.1 °F 45.0 °F 39% 30.27 in 10.0 mi North 5.8 mph - N/A   Clear
4:53 PM 70.0 °F 46.9 °F 44% 30.26 in 10.0 mi NNE 5.8 mph - N/A   Clear
5:53 PM 68.0 °F 46.0 °F 45% 30.28 in 10.0 mi North 9.2 mph - N/A   Clear
6:53 PM 64.0 °F 46.9 °F 54% 30.30 in 10.0 mi NNW 5.8 mph - N/A   Clear
7:53 PM 60.1 °F 48.0 °F 64% 30.31 in 10.0 mi ENE 5.8 mph - N/A   Clear
8:53 PM 59.0 °F 48.9 °F 69% 30.32 in 10.0 mi ENE 3.5 mph - N/A   Clear
9:53 PM 57.9 °F 44.1 °F 60% 30.32 in - Calm Calm - N/A   Clear
10:53 PM 57.0 °F 41.0 °F 55% 30.31 in - East 3.5 mph - N/A   Clear
11:53 PM 57.0 °F 33.1 °F 40% 30.32 in - ENE 5.8 mph - N/A   Clear